This demonstration page uses our WeatherBlox Daily Observations layout. Learn more.

36.17497, -115.13722

Hourly Observations for May 5, 2018

Temp ( °F °C ) Dew Point ( °F °C ) Humidity (%) Winds ( mph kmh ) Pressure ( in mb ) Visibility ( mi km ) Precip ( " mm )
12:53 am 00:53 Clear 71 21.7 36 2.2 28 28 NW 6 9 30.06 1018 10 16.09344 0 0
1:53 am 01:53 Clear 68 20 38 3.3 33 33 Calm 30.06 1018 10 16.09344 0 0
2:53 am 02:53 Clear 67 19.4 36 2.2 32 32 Calm 30.06 1018 10 16.09344 0 0
3:53 am 03:53 Clear 67 19.4 32 0 27 27 SE 6 9 30.06 1018 10 16.09344 0 0
4:53 am 04:53 Clear 66 18.9 35 1.7 32 32 WNW 5 7 30.06 1018 10 16.09344 0 0
5:53 am 05:53 Sunny 63 17.2 36 2.2 37 37 NW 8 13 30.06 1018 10 16.09344 0 0
6:53 am 06:53 Sunny 67 19.4 36 2.2 32 32 WNW 3 6 30.06 1018 10 16.09344 0 0
7:53 am 07:53 Sunny 71 21.7 34 1.1 26 26 Calm 30.09 1019 10 16.09344 0 0
8:53 am 08:53 Sunny 76 24.4 34 1.1 22 22 SE 3 6 30.06 1018 10 16.09344 0 0
9:53 am 09:53 Sunny 81 27.2 27 -2.8 14 14 Calm 30.06 1018 10 16.09344 0 0
10:53 am 10:53 Sunny 85 29.4 25 -3.9 11 11 N 6 9 30.06 1018 10 16.09344 0 0
11:53 am 11:53 Sunny 86 30 24 -4.4 10 10 N 6 9 30.03 1017 10 16.09344 0 0
12:53 pm 12:53 Sunny 89 31.7 22 -5.6 8 8 SE 7 11 30 1016 10 16.09344 0 0
1:53 pm 13:53 Sunny 90 32.2 20 -6.7 8 8 S 9 15 29.97 1015 10 16.09344 0 0
2:53 pm 14:53 Sunny 90 32.2 20 -6.7 8 8 SSW 9 15 29.94 1014 10 16.09344 0 0
3:53 pm 15:53 Sunny 92 33.3 21 -6.1 7 7 SE 7 11 29.94 1014 10 16.09344 0 0
4:53 pm 16:53 Sunny 91 32.8 21 -6.1 8 8 SE 7 11 29.91 1013 10 16.09344 0 0
5:53 pm 17:53 Sunny 90 32.2 20 -6.7 8 8 ESE 8 13 29.91 1013 10 16.09344 0 0
6:53 pm 18:53 Sunny 89 31.7 19 -7.2 7 7 E 9 15 29.88 1012 10 16.09344 0 0
7:53 pm 19:53 Clear 85 29.4 21 -6.1 9 9 E 7 11 29.88 1012 10 16.09344 0 0
8:53 pm 20:53 Clear 85 29.4 24 -4.4 11 11 Calm 29.88 1012 10 16.09344 0 0
9:53 pm 21:53 Clear 82 27.8 29 -1.7 14 14 WNW 6 9 29.91 1013 10 16.09344 0 0
10:53 pm 22:53 Clear 77 25 32 0 19 19 NNW 5 7 29.91 1013 10 16.09344 0 0
11:53 pm 23:53 Clear 77 25 31 -0.6 18 18 WNW 6 9 29.91 1013 10 16.09344 0 0

Powered by AerisWeather